{"data":{"norad_id":64807,"intl_designator":"2025-150T","name":"STARLINK-34663","alt_names":[],"object_type":"PAYLOAD","status":"ACTIVE","operator":null,"country":"US","launch_date":"2025-07-16","launch_site_code":"AFWTR","launch_vehicle":null,"mission":null,"orbit_class":"UNKNOWN","rcs_meters":null,"size_class":null,"mass_kg":null,"dimensions":null,"purposes":["comms"],"wikipedia_slug":null,"has_3d_model":false,"image_url":null,"decayed_at":null,"tle_current":{"epoch":"2026-09-20T13:07:32.929824Z","epoch_age_seconds":123878,"freshness":"FRESH","line1":"1 64807U 25150T   26263.54690891  .00003083  00000+0  26595-3 0  9992","line2":"2 64807  70.0022   3.1886 0003577 268.8025  91.2724 14.98344759 65704","mean_motion":14.98344759,"eccentricity":0.0003577,"inclination_deg":70.0022,"raan_deg":3.1886,"arg_perigee_deg":268.8025,"mean_anomaly_deg":91.2724,"bstar":0.00026595,"rev_number":6570,"period_min":96.106052452245,"perigee_km":569.52418265759,"apogee_km":574.49631800048,"semimajor_km":6950.147250329,"source":"CELESTRAK","updated_at":"2026-09-21T09:00:35.446145Z"}}}